sat.trackr.live / text

‹ back to catalog

STARLINK-5287

NORAD 55293 · 2023-010AA

PAYLOAD ACTIVE UNKNOWN

§ Identity

Operator
Country
US
Launch date
2023-01-19
Launch site
AFWTR
Launch vehicle
Mass (kg)
RCS (m²)

Purposes: comms

External: N2YO · Heavens-Above · Gunter

§ Orbital elements

Epoch: 2026-05-25T03:46:26.627232Z

Period
96.11 min
Inclination
69.9984°
Eccentricity
0.0003676
Mean motion
14.98331103 rev/d
Perigee alt
569.5 km
Apogee alt
574.6 km
Semi-major
6,950.2 km
B*
-2.4194e-6
RAAN
191.6370°
Arg perigee
267.8330°
Mean anomaly
92.2408°
Rev number
18,472

§ Raw data

STARLINK-52871 55293U 23010AA  26145.15725263 -.00000122  00000+0 -24194-5 0  99902 55293  69.9984 191.6370 0003676 267.8330  92.2408 14.98331103184729

JSON: /api/v1/satellites/55293 · /tle

For live sub-satellite position, see the globe view (requires WebGL).

§ Visibility from observer

Set your observer location to see the next 7 days of passes ≥ 10°. The values pass through the URL so the page stays shareable.

No JS? Fill the form by hand. The geolocation button needs JavaScript.